TimeEDT,TemperatureF,Dew PointF,Humidity,Sea Level PressureIn,VisibilityMPH,Wind Direction,Wind SpeedMPH,Gust SpeedMPH,PrecipitationIn,Events,Conditions,WindDirDegrees,DateUTC
12:56 AM,72.0,71.1,97,29.81,9.0,SSW,6.9,-,N/A,,Mostly Cloudy,210,2012-10-19 04:56:00
1:56 AM,73.0,71.1,93,29.80,10.0,SW,10.4,-,N/A,,Clear,220,2012-10-19 05:56:00
2:56 AM,73.0,71.1,93,29.79,10.0,WSW,6.9,-,N/A,,Clear,240,2012-10-19 06:56:00
3:56 AM,72.0,71.1,97,29.78,10.0,WSW,5.8,-,N/A,,Scattered Clouds,250,2012-10-19 07:56:00
4:56 AM,70.0,70.0,100,29.77,9.0,South,4.6,-,N/A,,Clear,190,2012-10-19 08:56:00
5:56 AM,69.1,69.1,100,29.77,8.0,SSW,4.6,-,N/A,,Clear,200,2012-10-19 09:56:00
6:56 AM,71.1,70.0,96,29.79,9.0,SSW,5.8,-,N/A,,Clear,200,2012-10-19 10:56:00
7:56 AM,71.1,70.0,96,29.79,7.0,SW,4.6,-,N/A,,Clear,230,2012-10-19 11:56:00
8:56 AM,73.9,71.1,91,29.81,8.0,SW,8.1,-,N/A,,Clear,220,2012-10-19 12:56:00
9:56 AM,75.0,68.0,79,29.82,10.0,West,8.1,-,N/A,,Clear,260,2012-10-19 13:56:00
10:56 AM,75.0,66.9,76,29.81,10.0,SW,4.6,-,N/A,,Scattered Clouds,230,2012-10-19 14:56:00
11:56 AM,73.9,66.9,79,29.80,10.0,South,5.8,-,0.00,,Overcast,180,2012-10-19 15:56:00
12:56 PM,77.0,69.1,76,29.79,10.0,SW,11.5,-,N/A,,Partly Cloudy,220,2012-10-19 16:56:00
1:56 PM,75.9,69.1,79,29.76,10.0,South,9.2,-,N/A,,Partly Cloudy,190,2012-10-19 17:56:00
3:56 PM,75.0,64.0,69,29.74,10.0,WSW,9.2,-,N/A,,Scattered Clouds,240,2012-10-19 19:56:00
5:56 PM,73.0,68.0,84,29.74,10.0,WSW,6.9,-,N/A,,Clear,240,2012-10-19 21:56:00
6:56 PM,71.1,69.1,93,29.75,10.0,SW,8.1,-,N/A,,Clear,230,2012-10-19 22:56:00
7:56 PM,71.1,69.1,93,29.76,10.0,SW,10.4,-,N/A,,Clear,220,2012-10-19 23:56:00
8:56 PM,71.1,68.0,90,29.77,10.0,WSW,9.2,-,N/A,,Clear,240,2012-10-20 00:56:00
10:56 PM,70.0,64.9,84,29.81,10.0,SW,9.2,-,N/A,,Clear,230,2012-10-20 02:56:00
11:56 PM,69.1,61.0,75,29.81,10.0,West,8.1,-,N/A,,Clear,260,2012-10-20 03:56:00